{"data":{"norad_id":65407,"intl_designator":"2025-192D","name":"STARLINK-35035","alt_names":[],"object_type":"PAYLOAD","status":"ACTIVE","operator":null,"country":"US","launch_date":"2025-08-31","launch_site_code":"AFETR","launch_vehicle":null,"mission":null,"orbit_class":"UNKNOWN","rcs_meters":null,"size_class":null,"mass_kg":null,"dimensions":null,"purposes":["comms"],"wikipedia_slug":null,"has_3d_model":false,"image_url":null,"decayed_at":null,"tle_current":{"epoch":"2026-09-20T14:29:14.028576Z","epoch_age_seconds":105942,"freshness":"FRESH","line1":"1 65407U 25192D   26263.60363459  .00005071  00000+0  16109-3 0  9998","line2":"2 65407  53.1566  45.0644 0000545  75.6837 284.4226 15.34405040 59269","mean_motion":15.3440504,"eccentricity":5.45e-5,"inclination_deg":53.1566,"raan_deg":45.0644,"arg_perigee_deg":75.6837,"mean_anomaly_deg":284.4226,"bstar":0.00016109,"rev_number":5926,"period_min":93.847449823288,"perigee_km":462.31543532929,"apogee_km":463.06108528266,"semimajor_km":6840.825260306,"source":"CELESTRAK","updated_at":"2026-09-21T09:00:35.602871Z"}}}